sat.trackr.live / text

‹ back to catalog

STARLINK-4617

NORAD 53675 · 2022-105AD

PAYLOAD ACTIVE UNKNOWN

§ Identity

Operator
Country
US
Launch date
2022-08-31
Launch site
AFWTR
Launch vehicle
Mass (kg)
RCS (m²)

Purposes: comms

External: N2YO · Heavens-Above · Gunter

§ Orbital elements

Epoch: 2026-09-20T22:49:52.775328Z

Period
93.91 min
Inclination
97.2843°
Eccentricity
0.0001720
Mean motion
15.33435697 rev/d
Perigee alt
464.4 km
Apogee alt
466.7 km
Semi-major
6,843.7 km
B*
1.8043e-5
RAAN
140.7329°
Arg perigee
90.6249°
Mean anomaly
269.5191°
Rev number
22,281

§ Raw data

STARLINK-46171 53675U 22105AD  26263.95130527  .00000507  00000+0  18043-4 0  99982 53675  97.2843 140.7329 0001720  90.6249 269.5191 15.33435697222811

JSON: /api/v1/satellites/53675 · /tle

For live sub-satellite position, see the globe view (requires WebGL).

§ Visibility from observer

Set your observer location to see the next 7 days of passes ≥ 10°. The values pass through the URL so the page stays shareable.

No JS? Fill the form by hand. The geolocation button needs JavaScript.